| time (UTC) | temp F | wind direction | speed MPH | gust MPH | rain 1hr in | rain 24hr in | rain mn in | humidity % | barometer mb |
| 20260506123040 | 52 | 63 | 0.0 | 5.0 | 0.00 | 0.00 | 0.00 | 46 | 1013.5 |
| 20260506121529 | 51 | 100 | 0.0 | 9.0 | 0.00 | 0.00 | 0.00 | 47 | 1013.4 |
| 20260506120025 | 49 | 305 | 0.0 | 1.0 | 0.00 | 0.00 | 0.00 | 51 | 1013.4 |
| 20260506114531 | 49 | 296 | 0.0 | 2.0 | 0.00 | 0.00 | 0.00 | 48 | 1013.4 |
| 20260506113018 | 49 | 67 | 0.0 | 1.0 | 0.00 | 0.00 | 0.00 | 46 | 1013.4 |
| 20260506111512 | 52 | 249 | 0.0 | 2.0 | 0.00 | 0.00 | 0.00 | 43 | 1013.3 |
| 20260506110014 | 50 | 91 | 0.0 | 0.0 | 0.00 | 0.00 | 0.00 | 45 | 1013.1 |
| 20260506104504 | 52 | 321 | 0.0 | 1.0 | 0.00 | 0.00 | 0.00 | 41 | 1013.2 |
| 20260506103106 | 53 | 270 | 0.0 | 3.0 | 0.00 | 0.00 | 0.00 | 33 | 1013.1 |
| 20260506101554 | 52 | 327 | 0.0 | 3.0 | 0.00 | 0.00 | 0.00 | 35 | 1013.0 |
| 20260506100051 | 52 | 347 | 0.0 | 0.0 | 0.00 | 0.00 | 0.00 | 37 | 1012.9 |
| 20260506094547 | 51 | 282 | 0.0 | 1.0 | 0.00 | 0.00 | 0.00 | 38 | 1012.8 |
| 20260506093051 | 50 | 254 | 0.0 | 2.0 | 0.00 | 0.00 | 0.00 | 41 | 1012.8 |
| 20260506091540 | 51 | 258 | 0.0 | 0.0 | 0.00 | 0.00 | 0.00 | 41 | 1012.7 |
| 20260506090033 | 51 | 290 | 0.0 | 1.0 | 0.00 | 0.00 | 0.00 | 41 | 1012.5 |
| 20260506084529 | 51 | 292 | 0.0 | 2.0 | 0.00 | 0.00 | 0.00 | 42 | 1012.5 |
| 20260506083024 | 49 | 302 | 0.0 | 0.0 | 0.00 | 0.00 | 0.00 | 44 | 1012.6 |
| 20260506081523 | 50 | 279 | 0.0 | 0.0 | 0.00 | 0.00 | 0.00 | 47 | 1012.4 |
| 20260506073007 | 49 | 293 | 0.0 | 0.0 | 0.00 | 0.00 | 0.00 | 49 | 1012.2 |
| 20260506071501 | 48 | 298 | 0.0 | 0.0 | 0.00 | 0.00 | 0.00 | 53 | 1012.1 |
| 20260506070124 | 47 | 263 | 0.0 | 0.0 | 0.00 | 0.00 | 0.00 | 56 | 1012.1 |
| 20260506061544 | 44 | 275 | 0.0 | 0.0 | 0.00 | 0.00 | 0.00 | 58 | 1011.8 |
| 20260506044519 | 36 | 289 | 0.0 | 0.0 | 0.00 | 0.00 | 0.00 | 20 | 1010.9 |
| 20260506043014 | 35 | 288 | 0.0 | 0.0 | 0.00 | 0.00 | 0.00 | 2 | 1010.8 |
| 20260506041508 | 34 | 269 | 0.0 | 0.0 | 0.00 | 0.00 | 0.00 | 1 | 1010.7 |
| 20260506040005 | 33 | 273 | 0.0 | 0.0 | 0.00 | 0.00 | 0.00 | 1 | 1010.6 |
| 20260506034603 | 32 | 294 | 0.0 | 0.0 | 0.00 | 0.00 | 0.00 | 1 | 1010.6 |
| 20260506033055 | 30 | 302 | 0.0 | 0.0 | 0.00 | 0.00 | 0.00 | 1 | 1010.4 |
| 20260506031551 | 29 | 254 | 0.0 | 0.0 | 0.00 | 0.00 | 0.00 | 1 | 1010.1 |
| 20260506030047 | 29 | 311 | 0.0 | 0.0 | 0.00 | 0.00 | 0.00 | 1 | 1010.0 |
| 20260506024550 | 29 | 311 | 0.0 | 0.0 | 0.00 | 0.00 | 0.00 | 1 | 1009.8 |
| 20260506023038 | 29 | 311 | 0.0 | 0.0 | 0.00 | 0.00 | 0.00 | 1 | 1009.7 |
| 20260506021533 | 29 | 311 | 0.0 | 0.0 | 0.00 | 0.00 | 0.00 | 1 | 1009.6 |
| 20260506020029 | 29 | 311 | 0.0 | 0.0 | 0.00 | 0.00 | 0.00 | 1 | 1009.4 |
| 20260506014526 | 29 | 311 | 0.0 | 0.0 | 0.00 | 0.00 | 0.00 | 1 | 1009.3 |
| 20260506013022 | 29 | 311 | 0.0 | 0.0 | 0.00 | 0.00 | 0.00 | 1 | 1009.2 |
| 20260506011534 | 29 | 301 | 0.0 | 0.0 | 0.00 | 0.00 | 0.00 | 1 | 1009.1 |
| 20260506010011 | 29 | 274 | 0.0 | 0.0 | 0.00 | 0.00 | 0.00 | 1 | 1009.0 |
| 20260506004507 | 29 | 274 | 0.0 | 0.0 | 0.00 | 0.00 | 0.00 | 1 | 1008.7 |
| 20260506003003 | 29 | 251 | 0.0 | 0.0 | 0.00 | 0.00 | 0.00 | 3 | 1008.7 |
| 20260506001604 | 30 | 251 | 0.0 | 0.0 | 0.00 | 0.00 | 0.00 | 7 | 1008.6 |
| 20260506000118 | 30 | 251 | 0.0 | 0.0 | 0.00 | 0.00 | 0.00 | 9 | 1008.5 |
| 20260505234553 | 30 | 251 | 0.0 | 0.0 | 0.00 | 0.00 | 0.00 | 15 | 1008.3 |
| 20260505233045 | 31 | 251 | 0.0 | 0.0 | 0.00 | 0.00 | 0.00 | 16 | 1008.2 |
| 20260505231540 | 31 | 251 | 0.0 | 0.0 | 0.00 | 0.00 | 0.00 | 15 | 1008.0 |
| 20260505230057 | 31 | 250 | 0.0 | 0.0 | 0.00 | 0.00 | 0.00 | 19 | 1007.9 |
| 20260505224539 | 32 | 252 | 0.0 | 0.0 | 0.00 | 0.00 | 0.00 | 28 | 1007.8 |
| 20260505223031 | 32 | 252 | 0.0 | 0.0 | 0.00 | 0.00 | 0.00 | 30 | 1007.7 |
| 20260505221528 | 32 | 240 | 0.0 | 0.0 | 0.00 | 0.00 | 0.00 | 34 | 1007.7 |
| 20260505220026 | 33 | 240 | 0.0 | 0.0 | 0.00 | 0.00 | 0.00 | 36 | 1007.6 |
| 20260505214528 | 33 | 239 | 0.0 | 0.0 | 0.00 | 0.00 | 0.00 | 37 | 1007.5 |
| 20260505213024 | 34 | 240 | 0.0 | 0.0 | 0.00 | 0.00 | 0.00 | 46 | 1007.3 |
| 20260505211525 | 35 | 239 | 0.0 | 0.0 | 0.00 | 0.00 | 0.00 | 50 | 1007.2 |
| 20260505210013 | 35 | 240 | 0.0 | 1.0 | 0.00 | 0.00 | 0.00 | 55 | 1007.1 |
| 20260505204508 | 36 | 239 | 0.0 | 0.0 | 0.00 | 0.00 | 0.00 | 56 | 1006.9 |
| 20260505203008 | 36 | 231 | 0.0 | 0.0 | 0.00 | 0.00 | 0.00 | 56 | 1006.7 |
| 20260505201559 | 36 | 267 | 0.0 | 0.0 | 0.00 | 0.00 | 0.00 | 60 | 1006.6 |
| 20260505200056 | 37 | 267 | 0.0 | 0.0 | 0.00 | 0.00 | 0.00 | 61 | 1006.3 |
| 20260505194605 | 37 | 263 | 0.0 | 0.0 | 0.00 | 0.00 | 0.00 | 62 | 1006.2 |
| 20260505193046 | 38 | 269 | 0.0 | 0.0 | 0.00 | 0.00 | 0.00 | 63 | 1006.1 |
| 20260505191554 | 39 | 269 | 0.0 | 1.0 | 0.00 | 0.00 | 0.00 | 62 | 1006.0 |
| 20260505190040 | 40 | 272 | 0.0 | 0.0 | 0.00 | 0.00 | 0.00 | 62 | 1005.9 |
| 20260505184536 | 42 | 272 | 0.0 | 0.0 | 0.00 | 0.00 | 0.00 | 60 | 1005.7 |
| 20260505183030 | 44 | 286 | 0.0 | 0.0 | 0.00 | 0.00 | 0.00 | 57 | 1005.5 |
| 20260505181524 | 45 | 267 | 0.0 | 0.0 | 0.00 | 0.00 | 0.00 | 51 | 1005.4 |
| 20260505180019 | 46 | 265 | 0.0 | 1.0 | 0.00 | 0.00 | 0.00 | 47 | 1005.2 |
| 20260505174515 | 47 | 248 | 0.0 | 0.0 | 0.00 | 0.00 | 0.00 | 47 | 1005.1 |
| 20260505173011 | 48 | 241 | 0.0 | 2.0 | 0.00 | 0.00 | 0.00 | 45 | 1004.8 |
| 20260505171506 | 48 | 273 | 0.0 | 1.0 | 0.00 | 0.00 | 0.00 | 48 | 1004.7 |
| 20260505170001 | 48 | 132 | 0.0 | 2.0 | 0.00 | 0.00 | 0.00 | 60 | 1004.7 |
| 20260505164605 | 48 | 126 | 0.0 | 1.0 | 0.00 | 0.00 | 0.00 | 60 | 1004.6 |
| 20260505163053 | 50 | 56 | 0.0 | 1.0 | 0.00 | 0.00 | 0.00 | 57 | 1004.7 |
| 20260505161552 | 52 | 265 | 0.0 | 1.0 | 0.00 | 0.00 | 0.00 | 53 | 1004.5 |
| 20260505153034 | 53 | 229 | 0.0 | 1.0 | 0.00 | 0.00 | 0.00 | 44 | 1004.4 |
| 20260505151533 | 53 | 273 | 0.0 | 1.0 | 0.00 | 0.00 | 0.00 | 45 | 1004.3 |
| 20260505124553 | 53 | 309 | 0.0 | 1.0 | 0.00 | 0.02 | 0.00 | 50 | 1003.7 |